Regional Weather Roundup
Issued by NWS New Orleans/Baton Rouge, LA

Home | Current Version | Previous Version | Text Only | Print | Product List | Glossary On
Versions: 1 2 3 4 5 6 7 8 9 10 11 12 13 14 15 16 17 18 19 20 21 22 23 24 25 26 27 28 29 30 31 32 33 34 35 36 37 38 39 40 41 42 43 44 45 46 47 48 49 50
000
ASUS44 KLIX 191913
RWRLIX
NEW ORLEANS REGIONAL WEATHER ROUNDUP
NATIONAL WEATHER SERVICE NEW ORLEANS LA
100 PM CST THU JAN 19 2017

NOTE: "FAIR" INDICATES FEW OR NO CLOUDS BELOW 12,000 FEET WITH NO
      SIGNIFICANT WEATHER AND/OR OBSTRUCTIONS TO VISIBILITY.
      SKY/WX - SKY CONDITION AND SIGNIFICANT WEATHER.
      TMP - AIR TEMPERATURE.     DP    - DEWPOINT TEMPERATURE.
      RH  - RELATIVE HUMIDITY.   PRES  - PRESSURE.
      HI  - HEAT INDEX.          WCI   - WIND CHILL INDEX.

*  THESE STATIONS ARE NOT NWS OR FAA STATIONS AND ARE NOT UNDER
   NWS QUALITY CONTROL.

LAZ038-040-048-061>063-065>067-069-192000-
SOUTHEAST LOUISIANA

CITY           SKY/WX    TMP DP  RH WIND       PRES   REMARKS
N.O. AUDUBON   NOT AVBL
N.O. INTL ARPT CLOUDY    75  67  76 S14G28    29.85F
N.O. LAKEFRONT CLOUDY    74  67  78 S23       29.86F
N.O. DOWNTOWN*   N/A     75  68  78 S13G18    29.86F
RESERVE*       CLOUDY    69  67  93 W7        29.85F
SLIDELL        CLOUDY    72  68  87 S6        29.85F
BATON ROUGE    RAIN      67  65  93 SW9       29.84F FOG
BOOTHVILLE     PTSUNNY   73  69  87 S17       29.90F
BELLE CHASSE   CLOUDY    75  69  81 S22G32    29.86F
BOGALUSA*      CLOUDY    65  61  88 N7        29.90F
GALLIANO*      CLOUDY    76  68  77 S20G25    29.88F
NEW ROADS*     LGT RAIN  65  63  94 S8        29.84F
GONZALES*      HVY RAIN  67  65  95 SW5       29.86F
HAMMOND*       RAIN      68  63  83 W3        29.85F
HOUMA*         PTSUNNY   75  70  83 S14G24    29.86F
PORT FOURCHON* CLEAR     73  70  88 S15       29.88F

$$

MSZ070-080>082-192000-
SOUTHERN MISSISSIPPI

CITY           SKY/WX    TMP DP  RH WIND       PRES   REMARKS
MCCOMB         LGT RAIN  63  61  93 SE3       29.85F FOG
GULFPORT       PTSUNNY   73  69  87 S12G22    29.88F FOG
BILOXI         CLOUDY    70  68  94 S10       29.89F FOG
PASCAGOULA     CLOUDY    74  68  81 S14G21    29.89F
STENNIS ARPT*  RAIN      70  64  83 SW12G17   29.88F

$$

COASTAL OBSERVATIONS
LAKE AND NEARSHORE STATIONS

STATION/POSITION TIME  TEMP    WIND        PRES    WAVE
                       AIR SEA DIR/SP/G            HT/PER
                 (UTC) (F)     (DEG/KT/KT) (MB)    (FT/S)
PASCAGOULA       1848   71     170/  9/ 13 1012.5
WAVELAND YACHT   1848   69 62  190/ 10/ 13 1011.9
GRAND ISLE       1848   73 67  190/  6/ 11 1012.2
SOUTHWEST PASS   1848          190/ 10/ 11   N/A
NEW CANAL        1848   74 59  200/ 11/ 18 1010.5
SHELL BEACH      1848   73 69  190/ 19/ 24 1011.7

OFFSHORE STATIONS

STATION/POSITION TIME  TEMP    WIND        PRES    WAVE
                       AIR SEA DIR/SP/G            HT/PER
                 (UTC) (F)     (DEG/KT/KT) (MB)    (FT/S)

$$




USA.gov is the U.S. government's official web portal to all federal, state and local government web resources and services.